EW9559 Weather Reports


Display with metric or nautical units.
time (UTC)temp
F
wind
direction
speed
MPH
gust
MPH
rain 1hr
in
rain 24hr
in
rain mn
in
humidity
%
barometer
mb
20260902073030 58 263 0.0 5.0 0.00 0.00 0.00 79 1014.8
20260902071532 59 270 0.0 4.0 0.00 0.00 0.00 78 1015.0
20260902070107 59 265 0.0 3.0 0.00 0.00 0.00 76 1015.2
20260902064531 60 270 0.0 5.0 0.00 0.00 0.00 76 1015.4
20260902063030 60 271 0.0 6.0 0.00 0.00 0.00 76 1015.4
20260902061530 60 269 0.0 6.0 0.00 0.00 0.00 75 1015.5
20260902054530 61 272 0.0 7.0 0.00 0.00 0.00 74 1015.6
20260902053030 61 267 0.0 7.0 0.00 0.00 0.00 73 1015.4
20260902051531 61 262 1.0 6.0 0.00 0.00 0.00 73 1015.3
20260902044530 61 267 1.0 7.0 0.00 0.00 0.00 71 1015.0
20260902043030 61 263 1.0 7.0 0.00 0.00 0.00 71 1014.9
20260902041602 61 256 1.0 6.0 0.00 0.00 0.00 70 1014.8
20260902040104 62 257 1.0 10.0 0.00 0.00 0.00 70 1014.7
20260902034531 62 259 1.0 6.0 0.00 0.00 0.00 70 1014.4
20260902033030 62 246 1.0 6.0 0.00 0.00 0.00 70 1014.4
20260902030030 62 258 1.0 8.0 0.00 0.00 0.00 71 1014.5
20260902023105 62 265 1.0 5.0 0.00 0.00 0.00 70 1014.2
20260902021531 63 258 1.0 7.0 0.00 0.00 0.00 69 1014.2
20260902020031 63 262 1.0 8.0 0.00 0.00 0.00 68 1014.2
20260902014532 63 266 0.0 9.0 0.00 0.00 0.00 67 1014.3
20260902013031 64 257 1.0 7.0 0.00 0.00 0.00 66 1014.1
20260902011603 64 264 0.0 6.0 0.00 0.00 0.00 66 1014.0
20260902010105 65 266 1.0 6.0 0.00 0.00 0.00 64 1013.9
20260902003030 65 269 1.0 7.0 0.00 0.00 0.00 63 1013.5
20260902001533 66 270 1.0 9.0 0.00 0.00 0.00 64 1013.5
20260902000032 65 279 1.0 8.0 0.00 0.00 0.00 65 1013.7
20260901234531 65 271 1.0 8.0 0.00 0.00 0.00 65 1013.7
20260901233033 66 272 1.0 8.0 0.00 0.00 0.00 65 1013.6
20260901231532 66 287 1.0 8.0 0.00 0.00 0.00 63 1013.6
20260901230031 67 270 1.0 7.0 0.00 0.00 0.00 62 1013.6
20260901224533 67 268 1.0 8.0 0.00 0.00 0.00 63 1013.5
20260901223030 68 275 1.0 9.0 0.00 0.00 0.00 62 1013.2
20260901211532 67 279 1.0 5.0 0.00 0.00 0.00 63 1013.2
20260901210030 67 282 1.0 9.0 0.00 0.00 0.00 62 1013.3
20260901204532 67 268 1.0 8.0 0.00 0.00 0.00 61 1013.4
20260901203031 67 266 2.0 10.0 0.00 0.00 0.00 61 1013.3
20260901194526 67 275 1.0 10.0 0.00 0.00 0.00 62 1013.7
20260901193029 67 271 1.0 8.0 0.00 0.00 0.00 63 1014.0
20260901191532 66 273 1.0 7.0 0.00 0.00 0.00 64 1014.2
20260901190031 66 274 1.0 9.0 0.00 0.00 0.00 64 1014.2
20260901184533 66 275 1.0 6.0 0.00 0.00 0.00 65 1014.4
20260901183103 66 266 1.0 7.0 0.00 0.00 0.00 67 1014.5
20260901181531 64 266 1.0 6.0 0.00 0.00 0.00 69 1014.6
20260901180030 63 267 1.0 6.0 0.00 0.00 0.00 71 1014.8
20260901174528 63 258 1.0 8.0 0.00 0.00 0.00 72 1014.8
20260901173032 62 251 1.0 7.0 0.00 0.00 0.00 73 1014.8
20260901171532 61 252 2.0 9.0 0.00 0.00 0.00 74 1014.8
20260901170031 60 256 1.0 7.0 0.00 0.00 0.00 76 1014.8
20260901164527 60 248 2.0 7.0 0.00 0.00 0.00 77 1014.9
20260901163025 59 252 2.0 9.0 0.00 0.00 0.00 78 1014.8
20260901154614 58 246 1.0 7.0 0.00 0.00 0.00 80 1014.5
20260901153032 58 245 2.0 10.0 0.00 0.00 0.00 81 1014.5
20260901151532 57 247 1.0 5.0 0.00 0.00 0.00 82 1014.5
20260901144531 57 244 1.0 6.0 0.00 0.00 0.00 83 1014.4
20260901143147 57 232 1.0 7.0 0.00 0.00 0.00 83 1014.3
20260901141531 57 244 1.0 8.0 0.00 0.00 0.00 82 1014.2
20260901140028 57 243 1.0 6.0 0.00 0.00 0.00 82 1014.0
20260901134530 58 242 1.0 7.0 0.00 0.00 0.00 81 1013.9
20260901133030 58 239 1.0 6.0 0.00 0.00 0.00 81 1013.7
20260901131527 58 237 1.0 8.0 0.00 0.00 0.00 81 1013.6
20260901130106 58 233 1.0 7.0 0.00 0.00 0.00 81 1013.4
20260901124530 58 237 0.0 4.0 0.00 0.00 0.00 80 1013.3
20260901121533 59 247 0.0 6.0 0.00 0.00 0.00 77 1013.3
20260901120029 59 235 1.0 7.0 0.00 0.00 0.00 77 1013.3
20260901114532 60 233 1.0 7.0 0.00 0.00 0.00 75 1013.2
20260901111528 60 232 1.0 8.0 0.00 0.00 0.00 74 1013.2
20260901104531 61 251 1.0 4.0 0.00 0.00 0.00 72 1013.2
20260901103030 62 254 1.0 6.0 0.00 0.00 0.00 71 1013.1
20260901101530 62 247 1.0 5.0 0.00 0.00 0.00 70 1013.1
20260901100030 63 260 0.0 7.0 0.00 0.00 0.00 70 1013.0
20260901094529 63 267 0.0 4.0 0.00 0.00 0.00 69 1013.0
20260901091527 64 246 0.0 4.0 0.00 0.00 0.00 67 1012.7
20260901090030 64 256 1.0 5.0 0.00 0.00 0.00 65 1012.6
20260901084531 64 263 0.0 4.0 0.00 0.00 0.00 64 1012.8
20260901083030 62 257 0.0 4.0 0.00 0.00 0.00 66 1012.9
20260901080028 58 260 0.0 1.0 0.00 0.00 0.00 69 1012.8
20260901074530 58 270 0.0 1.0 0.00 0.00 0.00 69 1012.6